Regional Weather Roundup
Issued by NWS

Home | Current Version | Previous Version | Text Only | Print | Product List | Glossary Off
Versions: 1 2 3 4 5 6 7 8 9 10 11 12 13 14 15 16 17 18 19 20 21 22 23 24 25 26 27 28 29 30 31 32 33 34 35 36 37 38 39 40 41 42 43 44 45 46 47 48 49 50

000
ASUS43 KIND 281009
RWRIN

WEATHER ROUNDUP FOR INDIANA
NATIONAL WEATHER SERVICE INDIANAPOLIS IN
600 AM EDT SAT MAR 28 2015

NOTE: "FAIR" INDICATES FEW OR NO CLOUDS BELOW 12,000 FEET WITH NO
SIGNIFICANT WEATHER AND/OR OBSTRUCTIONS TO VISIBILITY.

* - STATION DOES NOT REPORT WEATHER SUCH AS PRECIPITATION OR FOG.

+ - STATION NOT QUALITY CONTROLLED BY THE NATIONAL WEATHER SERVICE.
    USE DATA WITH CAUTION...ESPECIALLY DEWPOINT AND RELATIVE
    HUMIDITY OBSERVATIONS.

INZ001>003-010>013-019-020-281100-
NORTHWEST INDIANA

CITY           SKY/WX    TMP DP  RH WIND       PRES   REMARKS
GARY /AIRPORT/ CLEAR     25   9  50 NE9       30.24R WCI  15
KNOX *+          N/A     14   1  57 N5        30.22R WCI   6
LA PORTE +     MOCLDY    17   8  68 N6        30.22R WCI   8
MICHIGAN CITY+ CLEAR     18   1  49 CALM      30.24R
MONTICELLO +   CLEAR     15  12  87 N5        30.21R WCI   8
RENSSELAER +   CLEAR     19  19 100 NW5       30.23R WCI  13
VALPARAISO     CLEAR     16   7  67 CALM      30.23R

$$

LMZ046-743>745-281100-
SOUTHERN LAKE MICHIGAN

STATION/POSITION TIME  TEMP WIND        PRES
                       AIR  DIR/SP/G
                 (UTC) (F)  (DEG/KT/KT) (MB)
BURNS HARBOR     1000   23   40/ 10/ 13 1024.0R
MICHIGAN CITY    1000   19   70/  6/  7   N/A

$$

INZ004-005-014>016-021>024-281100-
NORTH CENTRAL INDIANA

CITY           SKY/WX    TMP DP  RH WIND       PRES   REMARKS
GOSHEN         CLEAR     14   7  73 N6        30.20R WCI   5
LOGANSPORT +   CLEAR     18  14  86 N6        30.22R WCI   9
PERU/GRISSOM   CLEAR     17  11  78 N7        30.18R WCI   8
ROCHESTER +    CLEAR     19  14  79 N3        30.21R
SOUTH BEND     FAIR      13   6  74 N6        30.22R WCI   4
WARSAW +       CLEAR     16  10  79 CALM      30.20R

$$

INZ006>009-017-018-025>027-281100-
NORTHEAST INDIANA

CITY           SKY/WX    TMP DP  RH WIND       PRES   REMARKS
ANGOLA *+      CLEAR     14   7  73 CALM      30.19R
AUBURN +       CLEAR     18  10  73 NE5       30.20R WCI  11
FORT WAYNE     CLEAR     18  11  74 NE8       30.19R WCI   8
HUNTINGTON +   CLEAR     17   8  67 CALM      30.19R

$$

INZ028-029-035-036-043>045-051>053-281100-
WEST CENTRAL INDIANA

CITY           SKY/WX    TMP DP  RH WIND       PRES   REMARKS
CRAWFORDSVL +  CLEAR     16   9  75 N3        30.20S
GREENCASTLE +  CLEAR     19  10  68 N6        30.20S WCI  11
LAFAYETTE      CLEAR     16  13  88 N5        30.22R WCI   9
TERRE HAUTE    CLEAR     21  14  74 N3        30.22R

$$

INZ030>032-037>040-046>048-054>057-064-065-281100-
CENTRAL INDIANA

CITY           SKY/WX    TMP DP  RH WIND       PRES   REMARKS
CP ATTERBURY + CLEAR     19  16  86 CALM      30.20R
FISHERS *+     CLEAR     16  16 100 CALM      30.19R
FRANKFORT +    CLEAR     17  15  91 NW5       30.21R WCI  10
GREENWOOD *+   PTCLDY    19  10  68 N5        30.19R WCI  13
INDIANAPOLIS   PTCLDY    18  12  77 NW7       30.18R WCI   9
-EAGLE CREEK   CLEAR     19  13  77 NW8       30.19R WCI   9
KOKOMO *+        N/A     18  10  73 N7        30.19R WCI   8
MARION +       CLEAR     18  12  78 N5        30.19R WCI  11
MT COMFORT *+  CLEAR     19   9  63 N7        30.19R WCI  10
SHELBYVILLE    CLEAR     20  14  77 NW6       30.18R WCI  12
ZIONSVILLE +   CLEAR     19  13  80 NW5       30.19R WCI  12

$$

INZ033-034-041-042-049-050-058-059-281100-
EAST CENTRAL INDIANA

CITY           SKY/WX    TMP DP  RH WIND       PRES   REMARKS
MUNCIE         CLEAR     18  14  84 N5        30.17R WCI  11

$$

INZ060-061-067>069-081>083-085>088-281100-
SOUTHWEST INDIANA

CITY           SKY/WX    TMP DP  RH WIND       PRES   REMARKS
EVANSVILLE     CLEAR     27  18  69 N3        30.22R
HUNTINGBURG *+ CLEAR     23  12  63 N6        30.20R WCI  16
WASHINGTON +   CLEAR     23  17  77 N6        30.21R WCI  15

$$

INZ062-063-066-070>080-084-089>092-281100-
SOUTH CENTRAL AND SOUTHEAST INDIANA

CITY           SKY/WX    TMP DP  RH WIND       PRES   REMARKS
BLOOMINGTON    CLEAR     18  13  80 N5        30.19R WCI  11
NORTH VERNON + CLEAR     21  16  79 N3        30.18R
SEYMOUR +      CLEAR     23  14  68 N6        30.19R WCI  16

$$




USA.gov is the U.S. government's official web portal to all federal, state and local government web resources and services.